Location: Göttingen
(51.5413°N, 9.9158°E)
Time: 10:46:19
(UTC+02:00)

EO-88 - Pass Details

Date: 06 July 2022
Orbit: 453 x 461 km, 97.3° (Epoch: 13 August)

Event Time Altitude Azimuth Distance (km) Brightness Sun altitude
Exits shadow 22:48:58 - 176° (S) 1,807 ? -8.3°
Reaches altitude 10° 22:49:24 10° 177° (S) 1,622 ? -8.4°
Maximum altitude 22:52:51 62° 258° (WSW) 532 ? -8.7°
Drops below altitude 10° 22:56:20 10° 341° (NNW) 1,632 ? -9.0°
Sets 22:58:24 0° 345° (NNW) 2,511 ? -9.2°
